| time (UTC) | temp F | wind direction | speed MPH | gust MPH | rain 1hr in | rain 24hr in | rain mn in | humidity % | barometer mb |
| 20260903203003 | 52 | 238 | 3.0 | 9.0 | 0.00 | 0.00 | 0.00 | 54 | 1025.7 |
| 20260903201557 | 52 | 214 | 3.0 | 7.0 | 0.00 | 0.00 | 0.00 | 52 | 1025.7 |
| 20260903200053 | 52 | 162 | 2.0 | 4.0 | 0.00 | 0.00 | 0.00 | 54 | 1025.4 |
| 20260903194509 | 49 | 290 | 0.0 | 3.0 | 0.00 | 0.00 | 0.00 | 57 | 1025.5 |
| 20260903193055 | 48 | 221 | 1.0 | 4.0 | 0.00 | 0.00 | 0.00 | 60 | 1025.5 |
| 20260903191553 | 47 | 258 | 0.0 | 4.0 | 0.00 | 0.00 | 0.00 | 64 | 1025.8 |
| 20260903190107 | 45 | 287 | 2.0 | 4.0 | 0.00 | 0.00 | 0.00 | 64 | 1025.8 |
| 20260903184552 | 44 | 170 | 2.0 | 6.0 | 0.00 | 0.01 | 0.00 | 67 | 1026.0 |
| 20260903183047 | 43 | 167 | 1.0 | 2.0 | 0.00 | 0.01 | 0.00 | 70 | 1025.9 |
| 20260903181558 | 42 | 244 | 1.0 | 2.0 | 0.00 | 0.01 | 0.00 | 70 | 1025.8 |
| 20260903180054 | 44 | 125 | 1.0 | 3.0 | 0.00 | 0.01 | 0.00 | 69 | 1025.7 |
| 20260903174548 | 42 | 244 | 0.0 | 2.0 | 0.00 | 0.01 | 0.00 | 76 | 1025.6 |
| 20260903173058 | 41 | 116 | 0.0 | 2.0 | 0.00 | 0.01 | 0.00 | 76 | 1025.6 |
| 20260903171557 | 42 | 112 | 0.0 | 2.0 | 0.00 | 0.01 | 0.00 | 77 | 1026.0 |
| 20260903170057 | 39 | 260 | 0.0 | 0.0 | 0.00 | 0.01 | 0.00 | 84 | 1025.8 |
| 20260903164503 | 35 | 264 | 0.0 | 1.0 | 0.00 | 0.01 | 0.00 | 89 | 1025.6 |
| 20260903163109 | 33 | 18 | 0.0 | 0.0 | 0.00 | 0.01 | 0.00 | 91 | 1025.2 |
| 20260903161549 | 33 | 20 | 0.0 | 0.0 | 0.00 | 0.01 | 0.00 | 91 | 1024.9 |
| 20260903154554 | 30 | 20 | 0.0 | 0.0 | 0.00 | 0.01 | 0.00 | 93 | 1025.0 |
| 20260903153045 | 29 | 20 | 0.0 | 0.0 | 0.00 | 0.01 | 0.00 | 93 | 1024.9 |
| 20260903151556 | 29 | 20 | 0.0 | 0.0 | 0.00 | 0.01 | 0.00 | 92 | 1024.8 |
| 20260903150110 | 29 | 20 | 0.0 | 0.0 | 0.00 | 0.01 | 0.00 | 93 | 1024.9 |
| 20260903144548 | 29 | 20 | 0.0 | 0.0 | 0.00 | 0.01 | 0.00 | 94 | 1024.8 |
| 20260903143100 | 29 | 20 | 0.0 | 0.0 | 0.00 | 0.01 | 0.00 | 93 | 1024.8 |
| 20260903141559 | 29 | 20 | 0.0 | 0.0 | 0.00 | 0.01 | 0.00 | 94 | 1024.5 |
| 20260903140047 | 28 | 20 | 0.0 | 0.0 | 0.00 | 0.01 | 0.00 | 93 | 1024.3 |
| 20260903134503 | 28 | 20 | 0.0 | 0.0 | 0.00 | 0.01 | 0.00 | 93 | 1024.2 |
| 20260903133053 | 28 | 20 | 0.0 | 0.0 | 0.00 | 0.01 | 0.00 | 91 | 1024.4 |
| 20260903131547 | 29 | 20 | 0.0 | 0.0 | 0.00 | 0.01 | 0.00 | 94 | 1024.1 |
| 20260903130105 | 28 | 20 | 0.0 | 0.0 | 0.00 | 0.01 | 0.00 | 94 | 1024.0 |
| 20260903124602 | 29 | 20 | 0.0 | 0.0 | 0.00 | 0.01 | 0.00 | 95 | 1023.9 |
| 20260903123044 | 29 | 20 | 0.0 | 0.0 | 0.00 | 0.01 | 0.00 | 92 | 1023.8 |
| 20260903121600 | 30 | 21 | 0.0 | 0.0 | 0.00 | 0.01 | 0.00 | 92 | 1023.6 |
| 20260903120053 | 30 | 20 | 0.0 | 0.0 | 0.00 | 0.01 | 0.00 | 92 | 1023.6 |
| 20260903114502 | 30 | 20 | 0.0 | 0.0 | 0.00 | 0.01 | 0.00 | 92 | 1023.3 |
| 20260903113105 | 30 | 20 | 0.0 | 0.0 | 0.00 | 0.01 | 0.00 | 92 | 1023.2 |
| 20260903111614 | 31 | 20 | 0.0 | 0.0 | 0.00 | 0.01 | 0.00 | 93 | 1023.3 |
| 20260903110047 | 31 | 20 | 0.0 | 0.0 | 0.00 | 0.01 | 0.00 | 90 | 1023.2 |
| 20260903104501 | 31 | 20 | 0.0 | 0.0 | 0.00 | 0.01 | 0.00 | 92 | 1023.2 |
| 20260903103104 | 30 | 20 | 0.0 | 1.0 | 0.00 | 0.01 | 0.00 | 92 | 1023.0 |
| 20260903101556 | 30 | 20 | 0.0 | 1.0 | 0.00 | 0.01 | 0.00 | 91 | 1022.9 |
| 20260903100002 | 30 | 20 | 0.0 | 0.0 | 0.00 | 0.01 | 0.00 | 92 | 1022.7 |
| 20260903094600 | 31 | 20 | 0.0 | 1.0 | 0.00 | 0.01 | 0.00 | 89 | 1022.6 |
| 20260903093121 | 31 | 89 | 0.0 | 0.0 | 0.00 | 0.01 | 0.00 | 88 | 1022.5 |
| 20260903091600 | 32 | 89 | 0.0 | 0.0 | 0.00 | 0.01 | 0.00 | 89 | 1022.2 |
| 20260903090047 | 32 | 14 | 0.0 | 1.0 | 0.00 | 0.01 | 0.00 | 89 | 1022.0 |
| 20260903084547 | 31 | 356 | 0.0 | 0.0 | 0.00 | 0.01 | 0.00 | 90 | 1021.9 |
| 20260903083100 | 31 | 356 | 0.0 | 0.0 | 0.00 | 0.01 | 0.00 | 87 | 1022.0 |
| 20260903081554 | 33 | 355 | 0.0 | 0.0 | 0.00 | 0.01 | 0.00 | 83 | 1021.9 |
| 20260903080044 | 33 | 356 | 0.0 | 0.0 | 0.00 | 0.01 | 0.00 | 88 | 1021.7 |
| 20260903074558 | 33 | 356 | 0.0 | 1.0 | 0.00 | 0.01 | 0.01 | 80 | 1021.4 |
| 20260903073053 | 36 | 356 | 0.0 | 0.0 | 0.00 | 0.01 | 0.01 | 81 | 1021.5 |
| 20260903071610 | 36 | 355 | 0.0 | 1.0 | 0.00 | 0.01 | 0.01 | 79 | 1021.3 |
| 20260903070104 | 37 | 5 | 1.0 | 2.0 | 0.00 | 0.01 | 0.01 | 72 | 1021.2 |
| 20260903064604 | 36 | 327 | 0.0 | 2.0 | 0.00 | 0.01 | 0.01 | 66 | 1020.9 |
| 20260903063045 | 38 | 192 | 0.0 | 2.0 | 0.00 | 0.01 | 0.01 | 63 | 1020.5 |
| 20260903061603 | 40 | 349 | 0.0 | 2.0 | 0.00 | 0.01 | 0.01 | 59 | 1020.1 |
| 20260903060050 | 41 | 286 | 0.0 | 1.0 | 0.00 | 0.01 | 0.01 | 53 | 1020.0 |
| 20260903054548 | 42 | 286 | 0.0 | 1.0 | 0.00 | 0.01 | 0.01 | 51 | 1019.8 |
| 20260903053056 | 43 | 288 | 0.0 | 2.0 | 0.00 | 0.01 | 0.01 | 48 | 1019.6 |
| 20260903051553 | 44 | 272 | 0.0 | 3.0 | 0.00 | 0.01 | 0.01 | 44 | 1019.4 |
| 20260903050100 | 45 | 257 | 0.0 | 1.0 | 0.00 | 0.01 | 0.01 | 42 | 1019.3 |
| 20260903044602 | 47 | 257 | 0.0 | 1.0 | 0.00 | 0.01 | 0.01 | 40 | 1019.1 |
| 20260903043052 | 50 | 257 | 1.0 | 2.0 | 0.00 | 0.01 | 0.01 | 37 | 1018.9 |
| 20260903041558 | 52 | 262 | 1.0 | 4.0 | 0.00 | 0.01 | 0.01 | 34 | 1018.8 |
| 20260903040109 | 53 | 274 | 1.0 | 6.0 | 0.00 | 0.01 | 0.01 | 33 | 1018.6 |
| 20260903034606 | 55 | 268 | 3.0 | 8.0 | 0.00 | 0.01 | 0.01 | 31 | 1018.4 |
| 20260903033045 | 56 | 266 | 2.0 | 6.0 | 0.00 | 0.01 | 0.01 | 33 | 1018.2 |
| 20260903031503 | 57 | 301 | 5.0 | 10.0 | 0.00 | 0.01 | 0.01 | 34 | 1017.9 |
| 20260903030053 | 58 | 262 | 2.0 | 7.0 | 0.00 | 0.01 | 0.01 | 36 | 1017.8 |
| 20260903024505 | 58 | 320 | 1.0 | 13.0 | 0.00 | 0.01 | 0.01 | 45 | 1017.5 |
| 20260903023100 | 59 | 68 | 0.0 | 3.0 | 0.00 | 0.01 | 0.01 | 45 | 1017.4 |
| 20260903021555 | 59 | 165 | 3.0 | 6.0 | 0.00 | 0.01 | 0.01 | 38 | 1017.1 |
| 20260903014619 | 59 | 69 | 1.0 | 5.0 | 0.00 | 0.01 | 0.01 | 44 | 1017.2 |
| 20260903013101 | 59 | 116 | 1.0 | 5.0 | 0.00 | 0.01 | 0.01 | 46 | 1016.9 |
| 20260903011549 | 59 | 248 | 1.0 | 8.0 | 0.00 | 0.01 | 0.01 | 48 | 1016.8 |
| 20260903010058 | 58 | 73 | 1.0 | 5.0 | 0.00 | 0.01 | 0.01 | 49 | 1016.7 |
| 20260903004558 | 58 | 46 | 2.0 | 7.0 | 0.00 | 0.01 | 0.01 | 49 | 1016.6 |
| 20260903003105 | 57 | 25 | 3.0 | 6.0 | 0.00 | 0.01 | 0.01 | 52 | 1016.5 |
| 20260903001501 | 56 | 77 | 1.0 | 7.0 | 0.00 | 0.01 | 0.01 | 55 | 1016.3 |
| 20260902234552 | 55 | 72 | 1.0 | 6.0 | 0.00 | 0.01 | 0.01 | 57 | 1016.4 |
| 20260902233101 | 56 | 37 | 3.0 | 7.0 | 0.00 | 0.01 | 0.01 | 57 | 1016.2 |
| 20260902231555 | 54 | 85 | 2.0 | 7.0 | 0.00 | 0.01 | 0.01 | 60 | 1016.0 |
| 20260902230049 | 54 | 101 | 2.0 | 6.0 | 0.00 | 0.01 | 0.01 | 62 | 1015.9 |
| 20260902224507 | 53 | 136 | 2.0 | 6.0 | 0.00 | 0.01 | 0.01 | 65 | 1015.9 |
| 20260902223107 | 53 | 196 | 2.0 | 6.0 | 0.00 | 0.01 | 0.01 | 66 | 1015.6 |
| 20260902221549 | 52 | 71 | 2.0 | 5.0 | 0.00 | 0.01 | 0.01 | 70 | 1015.8 |
| 20260902220101 | 52 | 195 | 2.0 | 7.0 | 0.00 | 0.01 | 0.01 | 69 | 1015.7 |
| 20260902214620 | 52 | 167 | 2.0 | 3.0 | 0.00 | 0.01 | 0.01 | 71 | 1015.7 |
| 20260902213051 | 50 | 217 | 1.0 | 6.0 | 0.00 | 0.01 | 0.01 | 74 | 1015.5 |
| 20260902211501 | 50 | 125 | 2.0 | 4.0 | 0.00 | 0.01 | 0.01 | 75 | 1015.5 |
| 20260902210055 | 48 | 68 | 2.0 | 4.0 | 0.00 | 0.01 | 0.01 | 77 | 1015.5 |
| 20260902204550 | 47 | 211 | 1.0 | 4.0 | 0.00 | 0.01 | 0.01 | 82 | 1015.3 |